CUBEBUG-2 (LO-74)

Last updated on Sun Jul 06 2025 00:03:05 GMT+0000 (Coordinated Universal Time)

1 39440U 13066AA 25186.39818183 .00003573 00000+0 36189-3 0 9996 2 39440 97.8497 130.7822 0063562 94.7339 266.1141 14.90071471625284
UTC large
Height (km)
Speed (km/s)
/
Latitude / Longitude
Inclination (degrees)
Orbital Period (minutes)
Azimuth
Elevation
Range (km)
Doppler Factor

Next 0 passes for location: London (51.5072 / 0.1276)

Sorry there are no passes over London.